Princeton, MN

6:00 PM CST on November 18, 2019 (GMT -0600)
Princeton Municipal

Weather History for KPNM - September, 2019

Change the Weather History Date:

Friday, September 27, 2019

  Actual Average Record
Temperature  
Mean Temperature 55 °F -  
Max Temperature 64 °F 63 °F 82 °F (2013)
Min Temperature 46 °F 39 °F 28 °F (2012)
Degree Days  
Heating Degree Days 10    
Growing Degree Days 5 (Base 50)    
Moisture  
Dew Point 51 °F    
Average Humidity 77    
Maximum Humidity 100    
Minimum Humidity 52    
Precipitation  
Precipitation 0.00 in - - ()
Sea Level Pressure  
Sea Level Pressure 29.70 in    
Wind  
Wind Speed 8 mph (West)    
Max Wind Speed 14 mph    
Max Gust Speed 23 mph    
Visibility 10 miles    
Events Rain    
Averages and records for this station are not official NWS values.
T = Trace of Precipitation, MM = Missing Value Source: NWS Daily Summary

Daily Weather History Graph

Daily Weather History Graph

Search for Another Location

Airport or City:

Astronomy

Sep. 27, 2019 Rise Set
Actual Time 7:07 AM CDT 7:02 PM CDT
Civil Twilight 6:37 AM CDT 7:32 PM CDT
Nautical Twilight 6:03 AM CDT 8:06 PM CDT
Astronomical Twilight 5:27 AM CDT 8:41 PM CDT
Moon 5:21 AM CDT (9/27) 6:59 PM CDT (9/27)
Length of Visible Light 12h 54m
Length of Day
11h 55m
Waning Crescent, 2% of the Moon is Illuminated
Sep 27
Waning Crescent
Sep 28
New
Oct 5
First Quarter
Oct 13
Full
Oct 21
Last Quarter

Hourly Weather History & Observations

Time (CDT) Temp. Windchill Dew Point Humidity Pressure Visibility Wind Dir Wind Speed Gust Speed Precip Events Conditions
12:16 AM 64.4 °F - 46.4 °F 52% 29.57 in 10.0 mi South 13.8 mph 23.0 mph N/A   Clear
12:35 AM 64.4 °F - 46.4 °F 52% 29.57 in 10.0 mi SSE 11.5 mph 18.4 mph N/A   Scattered Clouds
12:55 AM 64.4 °F - 46.4 °F 52% 29.55 in 10.0 mi South 12.7 mph 17.3 mph N/A   Mostly Cloudy
1:19 AM 64.4 °F - 48.2 °F 56% 29.54 in 10.0 mi South 13.8 mph 19.6 mph N/A   Clear
1:37 AM 64.4 °F - 48.2 °F 56% 29.53 in 10.0 mi South 12.7 mph 21.9 mph N/A   Scattered Clouds
1:55 AM 64.4 °F - 48.2 °F 56% 29.54 in 10.0 mi South 13.8 mph 19.6 mph N/A   Overcast
2:15 AM 64.4 °F - 48.2 °F 56% 29.54 in 10.0 mi South 10.4 mph 19.6 mph N/A   Overcast
2:16 AM 64.4 °F - 50.0 °F 59% 29.54 in 10.0 mi South 11.5 mph 19.6 mph N/A   Overcast
2:35 AM 64.4 °F - 50.0 °F 59% 29.54 in 10.0 mi South 9.2 mph 16.1 mph N/A   Overcast
2:58 AM 64.4 °F - 51.8 °F 64% 29.55 in 10.0 mi SW 6.9 mph - N/A Rain Light Rain
3:16 AM 62.6 °F - 51.8 °F 68% 29.54 in 10.0 mi South 5.8 mph - N/A Rain Rain
3:35 AM 60.8 °F - 53.6 °F 77% 29.53 in 10.0 mi Calm Calm - N/A Rain Light Rain
3:36 AM 60.8 °F - 53.6 °F 77% 29.53 in 10.0 mi Calm Calm - N/A Rain Light Rain
3:55 AM 60.8 °F - 53.6 °F 77% 29.53 in 10.0 mi Calm Calm - N/A Rain Light Rain
3:56 AM 60.8 °F - 53.6 °F 77% 29.53 in 10.0 mi Calm Calm - N/A Rain Light Rain
4:19 AM 60.8 °F - 53.6 °F 77% 29.54 in 10.0 mi SW 3.5 mph - N/A   Light Drizzle
4:55 AM 60.8 °F - 53.6 °F 77% 29.55 in 10.0 mi Calm Calm - N/A   Light Drizzle
5:15 AM 59.0 °F - 53.6 °F 82% 29.56 in 10.0 mi SSW 3.5 mph - N/A   Overcast
5:35 AM 60.8 °F - 53.6 °F 77% 29.57 in 10.0 mi SSW 5.8 mph - N/A   Overcast
5:40 AM 60.8 °F - 53.6 °F 77% 29.57 in 10.0 mi SSW 4.6 mph - N/A   Overcast
5:58 AM 60.8 °F - 53.6 °F 77% 29.59 in 10.0 mi WSW 4.6 mph - N/A Rain Light Rain
6:16 AM 60.8 °F - 53.6 °F 77% 29.59 in 10.0 mi West 9.2 mph - N/A   Light Drizzle
6:35 AM 59.0 °F - 53.6 °F 82% 29.58 in 10.0 mi West 3.5 mph - N/A   Light Drizzle
6:55 AM 57.2 °F - 53.6 °F 88% 29.57 in 10.0 mi Calm Calm - N/A Rain Light Rain
7:19 AM 57.2 °F - 53.6 °F 88% 29.58 in 7.0 mi Calm Calm - N/A Rain Light Rain
7:37 AM 57.2 °F - 53.6 °F 88% 29.59 in 7.0 mi South 3.5 mph - N/A Rain Rain
7:55 AM 55.4 °F - 53.6 °F 94% 29.60 in 5.0 mi WSW 4.6 mph - N/A Rain Rain
7:56 AM 55.4 °F - 55.4 °F 100% 29.60 in 5.0 mi WSW 3.5 mph - N/A Rain Rain
8:15 AM 55.4 °F - 53.6 °F 94% 29.62 in 10.0 mi WSW 5.8 mph - N/A Rain Light Rain
8:35 AM 55.4 °F - 53.6 °F 94% 29.62 in 10.0 mi SW 3.5 mph - N/A Rain Light Rain
8:58 AM 55.4 °F - 55.4 °F 100% 29.62 in 10.0 mi Calm Calm - N/A   Light Drizzle
9:16 AM 55.4 °F - 55.4 °F 100% 29.63 in 10.0 mi SW 4.6 mph - N/A   Clear
9:35 AM 57.2 °F - 55.4 °F 94% 29.63 in 10.0 mi WSW 5.8 mph - N/A   Clear
9:36 AM 57.2 °F - 55.4 °F 94% 29.63 in 10.0 mi WSW 5.8 mph - N/A   Clear
9:55 AM 57.2 °F - 55.4 °F 94% 29.64 in 10.0 mi West 5.8 mph - N/A   Clear
10:19 AM 57.2 °F - 55.4 °F 94% 29.64 in 7.0 mi West 8.1 mph - N/A   Clear
10:38 AM 57.2 °F - 55.4 °F 94% 29.66 in 10.0 mi West 6.9 mph - N/A   Clear
12:36 PM 60.8 °F - 53.6 °F 77% 29.69 in 10.0 mi West 10.4 mph - N/A   Scattered Clouds
12:55 PM 60.8 °F - 51.8 °F 72% 29.69 in 10.0 mi WNW 5.8 mph - N/A   Scattered Clouds
1:15 PM 60.8 °F - 51.8 °F 72% 29.70 in 10.0 mi NW 9.2 mph - N/A   Mostly Cloudy
1:19 PM 60.8 °F - 51.8 °F 72% 29.70 in 10.0 mi NW 8.1 mph - N/A   Mostly Cloudy
1:37 PM 62.6 °F - 51.8 °F 68% 29.70 in 10.0 mi WNW 10.4 mph 16.1 mph N/A   Mostly Cloudy
1:55 PM 62.6 °F - 51.8 °F 68% 29.70 in 10.0 mi WNW 10.4 mph - N/A   Scattered Clouds
2:15 PM 60.8 °F - 50.0 °F 68% 29.71 in 7.0 mi NW 8.1 mph - N/A   Scattered Clouds
2:35 PM 62.6 °F - 50.0 °F 63% 29.72 in 10.0 mi NW 10.4 mph - N/A   Clear
2:58 PM 62.6 °F - 48.2 °F 59% 29.73 in 10.0 mi WNW 8.1 mph - N/A   Clear
3:16 PM 62.6 °F - 50.0 °F 63% 29.73 in 10.0 mi West 8.1 mph - N/A   Mostly Cloudy
3:35 PM 62.6 °F - 50.0 °F 63% 29.74 in 10.0 mi NW 4.6 mph - N/A   Mostly Cloudy
3:55 PM 60.8 °F - 50.0 °F 68% 29.74 in 10.0 mi WNW 8.1 mph - N/A   Mostly Cloudy
3:56 PM 60.8 °F - 50.0 °F 68% 29.74 in 10.0 mi WNW 6.9 mph - N/A   Mostly Cloudy
4:19 PM 60.8 °F - 51.8 °F 72% 29.75 in 10.0 mi WNW 9.2 mph - N/A   Scattered Clouds
4:37 PM 60.8 °F - 50.0 °F 68% 29.77 in 10.0 mi WNW 8.1 mph - N/A   Scattered Clouds
4:55 PM 59.0 °F - 50.0 °F 72% 29.78 in 10.0 mi WNW 8.1 mph - N/A   Mostly Cloudy
5:15 PM 59.0 °F - 50.0 °F 72% 29.78 in 10.0 mi WNW 6.9 mph - N/A   Scattered Clouds
5:35 PM 59.0 °F - 50.0 °F 72% 29.79 in 10.0 mi WNW 6.9 mph - N/A   Clear
5:40 PM 59.0 °F - 50.0 °F 72% 29.80 in 10.0 mi West 6.9 mph - N/A   Clear
5:58 PM 59.0 °F - 50.0 °F 72% 29.80 in 10.0 mi WNW 6.9 mph - N/A   Clear
6:16 PM 57.2 °F - 48.2 °F 72% 29.81 in 10.0 mi NW 5.8 mph - N/A   Scattered Clouds
6:35 PM 55.4 °F - 48.2 °F 77% 29.83 in 10.0 mi WNW 4.6 mph - N/A   Clear
6:55 PM 55.4 °F - 48.2 °F 77% 29.84 in 10.0 mi WNW 4.6 mph - N/A   Clear
7:19 PM 55.4 °F - 48.2 °F 77% 29.85 in 10.0 mi NW 4.6 mph - N/A   Clear
7:37 PM 55.4 °F - 48.2 °F 77% 29.87 in 10.0 mi NW 6.9 mph - N/A   Mostly Cloudy
7:55 PM 55.4 °F - 48.2 °F 77% 29.88 in 10.0 mi NW 4.6 mph - N/A   Mostly Cloudy
8:15 PM 53.6 °F - 48.2 °F 82% 29.88 in 10.0 mi NW 3.5 mph - N/A   Scattered Clouds
8:35 PM 51.8 °F - 48.2 °F 88% 29.90 in 10.0 mi NW 4.6 mph - N/A   Scattered Clouds
8:58 PM 51.8 °F - 48.2 °F 88% 29.90 in 10.0 mi NW 4.6 mph - N/A   Mostly Cloudy
9:16 PM 53.6 °F - 48.2 °F 82% 29.91 in 10.0 mi NW 5.8 mph - N/A   Mostly Cloudy
9:35 PM 53.6 °F - 46.4 °F 77% 29.91 in 10.0 mi NW 5.8 mph - N/A   Scattered Clouds
9:36 PM 53.6 °F - 46.4 °F 77% 29.91 in 10.0 mi NW 5.8 mph - N/A   Scattered Clouds
9:55 PM 51.8 °F - 46.4 °F 82% 29.92 in 10.0 mi NW 5.8 mph - N/A   Clear
10:18 PM 50.0 °F - 46.4 °F 87% 29.91 in 10.0 mi NNW 4.6 mph - N/A   Clear
10:36 PM 50.0 °F - 46.4 °F 87% 29.93 in 10.0 mi NNW 4.6 mph - N/A   Clear
10:55 PM 48.2 °F - 46.4 °F 93% 29.94 in 10.0 mi NNW 4.6 mph - N/A   Clear
11:15 PM 48.2 °F - 44.6 °F 87% 29.94 in 10.0 mi North 4.6 mph - N/A   Clear
11:16 PM 48.2 °F - 44.6 °F 87% 29.94 in 10.0 mi North 4.6 mph - N/A   Clear
11:39 PM 46.4 °F 45.2 °F 44.6 °F 93% 29.96 in 10.0 mi NNW 3.5 mph - N/A   Clear
11:57 PM 46.4 °F 45.2 °F 44.6 °F 93% 29.97 in 10.0 mi NNW 3.5 mph - N/A   Clear